Temp
11 12 13 13 13 13 13 13 13 12 12 12 12 13 13 14 14 14 14 14 14 14 14 14 15 15 14 22 25 25 24 25 23 23 26 28 28 28 28 29 30 29 29 29 30 29 28
10 11 12 13 13 13 13 13 13 13 12 12 12 13 13 13 14 14 14 14 14 14 14 14 15 15 16 22 26 25 24 23 25 25 27 28 28 29 28 29 29 30 29 28 28 27 28
10 11 11 12 13 13 13 13 13 12 12 12 12 12 13 13 13 14 14 14 14 14 14 14 15 13 19 24 26 26 24 26 26 26 28 28 28 28 29 28 29 29 27 26 27 28 28
9 10 11 12 12 12 13 13 12 12 12 12 12 12 13 13 13 14 14 14 14 14 14 15 15 15 21 25 25 26 26 27 27 26 27 27 27 28 28 28 28 27 27 25 28 28 29
9 10 10 11 11 12 12 13 12 12 12 12 12 12 13 13 13 14 14 14 14 14 14 15 14 18 23 24 26 27 28 28 27 26 26 26 26 26 27 27 27 28 26 27 27 29 29
9 9 10 10 11 12 12 12 12 12 12 12 12 12 12 12 13 13 14 14 14 14 14 15 17 20 24 27 28 27 28 28 28 27 26 26 27 27 27 27 26 27 27 28 28 29 29
8 9 9 10 11 11 12 12 12 12 12 12 12 12 12 12 13 14 14 14 18 19 19 23 25 25 26 27 27 28 28 28 29 28 27 27 26 26 27 28 29 29 29 29 30 29 29
8 8 9 9 10 11 11 12 12 12 12 12 12 12 12 12 13 13 12 20 23 21 23 24 25 25 25 25 26 29 28 28 28 25 26 27 26 28 30 30 29 29 28 28 29 29 28
8 8 8 9 9 10 11 11 12 12 12 12 12 12 12 12 13 12 15 19 20 19 23 26 26 25 26 27 27 29 29 29 28 27 27 24 27 28 29 29 28 29 28 26 28 28 28
7 8 8 8 9 10 10 11 11 12 12 12 12 12 12 12 12 16 17 18 19 19 22 25 25 26 27 27 27 30 29 29 28 27 28 25 26 28 28 28 29 27 28 29 28 28 27
7 7 8 8 9 9 10 11 11 12 12 12 12 12 12 13 14 18 19 20 19 19 21 26 27 28 29 27 28 28 29 29 27 28 27 27 28 28 28 28 28 26 28 28 28 28 28
7 7 8 8 8 9 9 10 11 12 12 12 11 12 12 10 11 16 17 18 19 20 21 25 27 26 26 27 27 28 28 29 29 28 28 21 28 28 28 27 28 27 27 28 28 28 26
7 7 7 7 8 8 9 10 10 11 11 11 11 12 11 14 18 17 17 19 20 21 26 25 26 26 26 26 26 27 27 27 26 25 26 27 28 27 28 27 27 28 27 25 25 25 25
6 6 7 7 8 8 8 9 10 11 11 11 11 11 11 13 15 15 18 19 20 25 25 27 27 26 26 27 27 26 27 27 28 28 27 26 25 27 28 28 27 27 27 25 23 24 26
6 6 7 7 7 8 8 9 9 10 10 10 11 10 12 13 13 14 20 19 22 25 27 26 26 25 26 27 26 26 26 27 28 28 25 26 26 27 26 27 27 27 26 27 25 22 23
5 6 6 7 7 7 8 8 9 10 10 10 11 13 15 15 13 16 19 19 24 26 27 26 25 26 25 26 25 26 26 28 27 27 28 27 25 26 26 26 26 26 27 25 25 22 23
4 6 6 6 7 7 7 8 8 9 10 11 14 16 19 15 14 18 19 21 24 26 26 25 26 26 26 26 26 26 27 26 27 26 26 28 27 25 25 26 27 26 25 26 26 25 23
2 5 6 6 7 7 7 8 8 8 10 10 15 16 15 14 17 19 20 22 22 25 25 25 26 26 26 27 26 26 26 27 27 27 26 27 26 25 25 27 26 27 26 26 24 24 23
2 5 6 6 7 7 7 8 7 8 9 11 15 16 14 16 18 19 21 22 24 25 25 25 25 27 27 26 25 26 26 23 25 25 26 26 25 24 24 25 25 25 26 26 26 24 23
3 5 6 6 6 6 7 7 7 8 10 12 17 15 13 15 21 21 21 22 23 25 25 26 26 27 26 25 26 25 25 22 22 25 16 21 25 25 24 26 26 24 25 26 25 22 23
2 5 6 6 6 6 7 7 7 8 10 12 14 19 18 17 20 22 22 23 23 24 24 25 25 25 25 24 25 25 25 22 22 16 22 24 24 25 25 25 24 25 25 25 24 25 24
3 4 5 5 6 6 7 7 7 8 10 11 16 21 21 22 21 22 20 23 23 25 25 24 25 26 26 25 25 25 25 24 24 22 23 24 23 23 22 24 23 23 24 25 25 25 26
4 4 5 5 5 6 6 7 6 7 9 10 15 18 22 20 21 21 22 23 24 26 23 24 26 26 26 25 25 25 26 26 26 24 23 23 22 21 21 21 21 18 22 24 25 25 25
4 5 5 5 5 6 6 6 7 6 8 14 16 20 20 19 22 21 23 24 24 24 24 24 26 26 22 23 23 24 23 23 23 22 24 22 21 20 19 15 17 24 24 24 23 25 26
5 5 5 5 5 6 6 6 6 6 7 12 15 17 19 15 21 21 23 23 24 22 24 23 21 22 23 24 22 20 19 18 20 21 21 22 20 17 17 20 22 23 24 22 22 23 25
5 5 5 5 6 6 6 6 6 7 8 9 11 14 17 18 20 23 23 24 22 22 20 18 20 20 20 22 20 21 21 22 21 20 20 20 20 20 17 16 16 22 21 21 22 21 23
5 5 5 5 6 5 6 6 6 7 9 8 12 13 15 21 21 23 22 22 24 23 22 18 18 18 20 19 17 20 21 22 21 19 14 16 16 17 17 17 20 23 21 21 20 20 21
5 5 5 6 5 6 6 7 7 7 8 8 11 13 14 20 19 19 23 23 23 24 20 20 20 19 20 18 19 20 18 20 21 22 19 18 17 15 17 14 16 21 20 19 20 21 20
5 6 5 6 6 6 6 7 7 9 8 9 11 13 15 20 17 16 15 16 18 22 24 20 23 21 22 21 18 18 15 13 19 20 22 20 21 21 20 21 21 21 21 21 20 19 20
Height
812 813 815 816 818 818 820 820 821 821 821 821 820 819 818 815 814 814 810 808 807 803 801 799 798 797 796 786 773 768 769 767 768 771 770 766 766 764 765 757 752 760 757 754 751 757 757
807 809 810 812 813 814 816 817 817 818 818 819 818 817 816 815 811 809 808 805 804 802 800 799 797 796 796 785 768 769 771 770 769 770 768 764 763 759 761 755 756 752 759 760 763 767 762
803 804 805 806 808 811 812 813 815 815 816 816 816 815 814 812 809 808 805 803 802 800 799 799 796 797 791 774 768 768 769 768 767 768 764 762 762 764 758 761 757 759 773 774 770 763 765
798 799 800 801 802 805 807 810 812 813 813 813 813 813 811 810 807 806 803 801 800 799 797 798 796 797 782 767 767 766 766 765 764 764 765 764 764 763 763 762 763 773 772 788 770 765 761
793 794 794 796 797 799 802 805 808 809 810 810 810 810 809 807 806 803 801 800 798 798 796 797 797 794 776 766 764 760 760 760 763 764 765 767 766 766 765 771 776 766 783 778 774 759 757
787 789 789 790 792 793 796 799 803 805 807 807 807 807 807 805 804 802 800 800 798 797 796 797 794 792 770 760 758 759 759 760 759 762 766 765 763 767 766 769 782 771 769 765 767 762 757
781 782 784 784 786 788 791 794 798 800 802 804 805 804 804 804 803 800 800 801 797 794 791 773 767 765 762 762 759 757 756 757 755 757 767 759 770 773 770 758 754 753 756 760 752 755 759
773 775 777 780 780 782 785 788 792 795 798 800 802 802 802 801 802 800 800 794 783 789 777 769 767 766 765 765 762 753 756 757 756 775 771 763 774 756 744 748 753 752 758 759 755 757 763
764 767 770 773 776 777 779 782 786 790 793 796 798 799 800 800 799 799 798 792 788 788 776 758 759 760 759 760 756 749 751 750 756 765 764 775 763 753 752 754 757 755 759 775 760 762 762
756 758 762 765 769 771 774 776 779 785 789 792 794 796 797 799 801 794 792 790 790 791 780 763 761 754 755 754 757 745 748 751 753 766 758 770 766 754 756 758 754 766 754 755 760 766 774
748 751 752 757 760 764 768 772 774 778 784 787 790 793 795 797 795 792 789 788 790 790 791 748 749 741 742 753 747 750 748 749 760 755 761 761 757 756 758 758 755 768 755 758 757 758 761
737 742 745 748 754 756 762 765 769 772 779 785 787 789 793 794 795 788 789 790 790 793 785 756 743 751 753 749 750 744 749 749 748 756 754 781 751 750 754 758 758 758 762 761 759 761 780
727 732 737 741 745 751 754 759 764 768 774 779 784 785 789 789 787 788 789 788 789 782 744 753 750 746 749 753 753 753 756 759 764 776 770 761 759 757 756 765 761 762 768 788 790 784 789
716 721 728 733 738 744 747 753 757 763 770 775 781 782 783 786 786 787 787 786 781 748 747 736 741 745 752 746 751 752 753 759 751 752 759 771 782 760 755 759 761 763 763 781 803 794 781
705 712 717 725 730 736 741 747 752 756 765 773 777 780 781 778 783 785 779 782 765 742 734 745 744 753 750 745 749 753 756 753 748 748 772 767 768 757 760 759 761 764 776 764 782 796 800
694 701 709 716 723 729 735 740 747 751 758 768 774 775 771 774 778 784 774 770 751 733 731 738 752 743 751 750 758 755 754 743 747 749 745 750 770 760 766 763 764 767 761 783 780 807 799
684 692 698 707 716 721 727 733 740 746 752 764 769 766 754 768 776 776 764 757 744 733 737 743 743 745 740 746 747 751 749 751 748 754 751 747 760 771 767 768 761 769 773 771 770 778 793
676 682 690 699 707 715 720 726 732 740 747 760 760 757 757 762 767 761 756 746 741 734 736 738 737 735 737 736 746 746 749 744 745 747 758 751 757 772 768 755 756 757 760 762 786 786 785
668 673 682 690 699 706 713 718 725 732 738 752 749 749 757 756 748 749 744 742 735 737 736 739 739 730 731 738 753 746 746 756 752 753 754 756 766 779 774 769 764 767 760 761 763 778 785
657 664 673 682 691 699 705 711 718 724 732 743 735 741 753 751 735 736 739 736 738 732 733 728 732 730 737 741 737 747 750 759 760 755 772 765 760 766 777 762 752 767 761 758 767 785 781
650 657 666 675 683 691 697 703 709 715 726 737 728 711 719 729 723 724 728 727 736 736 733 730 732 733 735 746 745 748 745 761 762 774 764 761 769 760 757 759 763 760 760 760 767 765 773
645 653 661 669 676 683 691 697 703 709 722 728 712 697 704 709 717 720 725 724 726 722 726 733 732 727 726 737 740 745 743 751 754 762 761 759 768 768 777 765 769 770 761 760 757 758 754
638 647 655 663 670 677 683 689 697 703 713 715 710 695 690 703 712 717 713 716 718 713 727 724 723 722 729 732 732 733 732 735 740 753 759 763 768 779 782 778 777 792 767 758 752 749 752
632 641 648 657 664 671 680 686 693 698 706 706 704 696 692 705 703 707 708 711 714 717 723 724 717 721 739 738 739 741 745 750 752 756 752 766 770 781 786 804 805 752 749 750 755 748 742
627 635 642 650 658 666 672 680 688 698 705 706 701 696 689 712 703 708 706 710 713 726 719 727 735 731 735 736 749 762 766 773 766 761 763 761 772 790 796 781 764 755 750 759 762 758 745
621 629 637 643 650 660 668 677 686 692 700 706 702 702 695 699 700 694 702 705 716 721 732 742 739 741 742 743 753 761 765 756 764 769 769 770 770 776 791 797 800 761 759 758 758 767 754
617 624 632 639 646 652 660 671 681 688 695 705 704 700 695 690 693 693 700 705 704 712 722 740 745 747 744 750 766 760 759 750 763 772 793 786 788 787 786 789 771 751 758 761 774 774 760
611 619 626 633 643 650 658 665 673 682 691 701 701 704 702 690 699 701 698 702 704 707 726 732 741 745 745 755 756 755 764 757 757 749 769 773 780 793 784 801 791 756 762 770 765 759 762
607 615 622 625 636 645 654 665 673 680 687 701 704 699 697 692 704 708 710 710 711 708 708 726 719 727 731 737 751 756 772 779 759 764 752 764 757 761 764 761 757 756 758 760 762 764 763
Wind_Speed
19 20 29 26 25 23 22 20 19 18 17 17 17 15 15 15 17 20 18 18 17 14 15 14 13 10 7 9 13 3 6 2 15 15 15 11 10 11 11 11 9 11 9 3 8 9 9
26 21 22 29 27 26 24 22 20 19 18 18 17 16 16 17 17 18 18 16 15 14 13 12 10 5 10 13 2 3 2 5 8 16 16 13 9 11 10 6 9 8 6 5 8 7 13
26 24 23 24 30 28 26 25 22 20 19 18 18 17 16 16 17 18 16 15 14 13 12 11 7 5 11 16 2 2 7 5 7 14 14 13 13 7 4 7 1 8 16 4 8 13 10
25 28 25 22 25 30 28 26 24 22 20 19 18 17 16 16 16 17 15 14 12 11 9 8 4 5 8 5 9 12 13 15 9 10 12 3 7 9 8 4 5 7 10 14 14 14 15
25 24 26 25 22 26 29 27 26 23 22 19 17 16 16 15 16 15 13 11 9 9 6 3 3 6 8 2 10 11 10 7 2 7 7 3 8 9 6 10 11 11 9 13 9 14 9
24 24 26 26 24 23 25 28 26 24 22 19 17 16 16 16 15 13 9 7 7 4 3 6 11 7 8 7 1 5 4 6 6 6 6 8 7 9 9 10 10 13 16 15 14 13 12
27 25 25 26 29 23 26 27 27 25 22 19 17 15 15 15 14 10 4 4 5 7 12 13 5 11 4 10 9 11 5 9 8 5 6 11 7 9 16 18 7 11 10 10 14 9 13
31 29 27 27 25 29 25 27 27 25 23 19 16 14 14 13 13 8 7 8 9 7 9 21 16 11 16 11 8 10 6 8 9 10 11 14 7 12 9 9 7 7 4 7 8 9 7
32 32 31 28 29 27 27 28 27 25 23 19 16 14 12 12 9 8 14 15 4 13 7 9 14 12 10 9 11 14 9 7 8 9 17 9 5 4 6 8 7 3 8 4 9 10 13
33 33 31 29 29 28 26 28 28 26 24 20 16 14 11 7 5 10 12 15 16 8 6 12 11 8 8 8 8 10 7 6 5 11 12 6 19 8 7 5 6 8 1 2 4 12 13
36 35 35 34 30 29 26 29 29 26 25 20 17 15 12 12 7 9 5 3 3 4 5 15 15 9 11 13 2 12 5 8 14 9 9 8 9 7 9 5 6 9 3 4 6 11 9
38 37 36 35 33 30 28 22 33 28 25 21 19 16 12 8 13 11 5 1 5 6 7 8 11 13 13 12 7 4 11 9 4 7 11 5 6 2 9 2 3 4 4 6 8 10 9
40 38 38 35 34 31 28 25 30 29 25 23 21 17 17 12 6 6 9 6 6 9 7 11 17 18 17 10 10 10 13 14 11 10 10 13 8 4 5 6 3 7 7 8 5 4 8
42 39 39 36 34 32 26 27 26 30 25 24 21 18 18 18 14 4 10 7 12 11 13 6 15 16 16 13 12 12 12 16 18 14 11 11 8 11 7 10 5 8 10 5 6 7 7
43 40 38 37 35 32 27 26 27 30 27 26 20 13 15 18 16 6 9 13 14 6 13 9 11 15 17 13 7 12 15 15 15 15 9 16 5 7 1 3 5 6 7 5 3 0 5
39 40 39 38 34 32 29 26 28 30 30 29 18 14 20 18 22 12 9 19 20 6 5 11 15 16 16 15 11 13 14 13 6 4 7 3 3 4 6 5 6 8 3 4 4 3 6
35 41 39 36 35 32 30 27 28 32 33 29 22 7 14 23 24 8 13 18 18 7 9 14 17 15 15 15 15 15 12 6 7 9 7 7 8 7 5 10 11 7 8 6 4 2 4
37 41 41 37 35 32 31 29 28 36 35 31 20 11 24 34 11 10 15 20 20 14 10 11 9 13 14 13 12 11 16 11 9 7 11 5 4 7 11 3 5 9 8 9 6 6 3
49 43 41 37 36 32 31 30 29 39 43 29 10 7 18 28 14 14 18 21 21 17 12 13 11 13 12 11 11 12 11 6 5 7 6 6 7 9 7 6 6 8 10 8 7 1 9
43 43 40 37 34 33 31 28 29 44 46 33 9 9 4 8 16 22 23 21 19 17 12 13 15 13 10 12 11 10 9 4 5 5 3 1 12 10 10 8 5 12 12 12 12 8 10
37 37 36 34 33 32 31 30 29 49 47 31 5 13 13 15 20 23 23 18 22 18 11 13 12 15 14 11 14 8 10 7 6 5 6 5 9 13 14 6 8 8 9 10 15 17 15
36 36 35 34 33 32 31 30 33 54 53 21 6 12 14 15 24 22 22 23 24 20 16 15 16 19 16 10 11 11 12 10 8 9 8 5 6 4 5 7 9 11 13 13 14 17 18
42 37 35 34 33 32 34 32 32 43 44 9 17 13 12 15 24 19 19 24 21 20 4 10 19 17 12 2 7 9 6 2 4 8 10 6 4 4 7 3 5 6 15 18 17 17 14
40 37 35 34 35 34 38 40 38 37 45 22 22 6 9 15 19 21 24 22 19 11 11 5 11 11 6 13 14 12 11 9 7 5 3 5 7 1 1 1 1 2 2 5 7 12 14
39 37 36 35 36 34 43 40 44 48 46 37 18 6 3 4 19 22 24 24 15 8 11 12 4 5 16 8 4 5 2 3 3 3 3 3 5 3 3 6 9 12 5 2 2 5 6
40 37 35 37 35 35 48 38 42 51 48 46 13 10 5 9 15 25 19 22 11 11 7 5 10 7 3 2 2 5 5 7 6 7 3 3 3 4 3 3 4 3 4 1 1 5 8
36 35 35 34 36 42 42 42 45 43 48 41 15 6 6 8 9 15 15 16 15 13 6 6 7 4 4 2 2 3 5 3 6 5 5 3 1 6 5 3 6 4 3 2 5 3 6
35 35 35 38 40 41 44 40 43 42 42 40 30 10 9 3 6 2 7 16 9 13 7 11 7 2 3 3 3 3 1 4 2 3 6 7 7 3 3 3 5 7 6 1 5 5 5
35 33 38 43 46 44 43 44 42 40 43 36 15 9 1 1 5 8 10 10 3 3 7 12 3 11 7 5 1 3 2 1 1 3 4 4 4 2 6 1 5 4 4 3 5 8 8
Wind_Direction
271 264 258 261 263 265 267 270 277 283 284 284 292 292 296 304 311 312 312 312 309 305 300 301 307 321 312 241 257 324 329 10 182 192 221 227 236 239 240 219 208 210 267 279 131 127 166
268 271 265 258 261 263 265 266 272 278 282 282 290 291 294 301 308 309 308 308 303 298 297 299 307 308 258 263 327 249 205 135 183 207 225 234 240 255 304 279 216 195 73 74 85 212 235
263 270 268 261 257 261 264 265 268 273 279 281 287 289 292 299 307 306 306 306 298 296 297 298 305 294 266 245 293 280 224 259 260 226 243 229 244 243 246 246 22 143 114 12 185 196 207
268 260 266 266 260 257 261 263 265 269 274 280 284 287 290 299 305 304 306 301 296 294 292 295 285 274 265 263 247 258 247 263 253 233 239 314 238 256 279 352 159 194 179 179 212 192 230
265 262 264 263 265 258 257 260 262 265 270 277 280 283 289 297 302 301 303 296 295 286 283 270 257 235 267 215 233 246 240 251 181 225 210 234 221 222 193 214 188 203 189 198 182 210 195
261 262 259 260 262 260 262 255 256 260 265 273 277 280 288 296 299 298 297 292 290 265 250 245 259 256 239 231 190 268 208 208 203 157 184 211 202 214 213 215 211 198 213 171 178 185 199
257 257 258 261 254 263 257 256 253 254 258 266 271 275 283 293 293 287 277 256 215 202 222 235 130 252 291 332 257 220 173 205 219 209 255 192 212 217 187 223 220 243 186 199 149 165 203
255 257 257 260 260 250 255 255 249 250 253 257 264 269 278 288 287 269 235 242 355 348 290 219 247 259 268 278 274 220 188 233 203 126 252 245 185 241 203 201 231 249 188 147 122 178 270
251 250 252 254 257 250 253 246 247 245 246 250 254 259 272 284 275 248 235 236 314 350 258 198 216 239 241 205 244 210 194 231 196 184 228 345 278 173 188 196 223 202 263 336 186 178 225
244 242 246 249 253 254 251 245 243 239 239 240 243 246 253 261 227 234 239 249 248 306 272 172 200 221 204 225 232 247 204 257 202 244 251 104 233 185 194 232 274 192 22 218 171 195 211
240 240 245 248 247 251 249 242 239 233 235 233 233 236 238 211 319 216 38 207 169 215 251 156 174 153 172 207 66 191 193 215 261 196 229 211 177 182 214 52 304 95 136 237 247 255 213
237 237 242 242 243 243 243 242 234 231 227 229 227 225 224 211 249 238 312 278 185 229 237 169 163 188 183 207 210 144 197 220 326 251 224 300 323 314 65 104 261 133 205 224 246 256 266
232 232 237 237 236 240 237 232 229 226 221 221 223 218 213 201 228 221 241 198 205 234 125 175 185 184 196 183 191 212 198 203 211 217 209 177 177 116 181 153 164 227 243 257 212 251 245
230 229 231 229 231 234 232 230 227 219 217 216 219 214 220 215 232 279 208 207 228 202 210 157 185 190 200 188 205 200 208 209 217 251 226 203 185 179 164 267 302 214 302 280 277 290 273
226 225 225 226 227 228 227 225 223 213 211 212 208 205 227 220 206 231 212 214 214 252 197 197 192 199 201 188 225 203 218 223 203 225 188 244 172 111 211 235 278 158 245 14 306 86 273
233 221 222 223 223 221 221 224 224 211 209 204 189 197 228 202 188 212 215 231 222 260 239 208 199 205 194 187 200 194 197 219 180 264 270 282 178 188 139 210 205 284 60 212 212 263 256
253 215 214 214 218 217 218 222 220 212 207 199 201 212 204 171 164 208 209 219 236 182 229 230 212 204 208 191 197 194 205 147 209 184 239 245 248 158 169 215 247 174 230 239 307 276 290
252 212 216 214 216 216 217 219 219 212 201 187 201 214 151 154 177 204 208 217 226 227 213 250 272 206 222 191 202 212 222 207 174 193 206 201 263 244 239 87 310 295 269 225 235 227 227
231 208 207 208 214 214 216 218 216 209 195 175 204 171 172 189 196 202 195 222 228 231 213 222 225 210 205 200 202 221 218 71 178 209 236 186 235 243 229 212 217 240 231 244 238 324 244
228 201 201 203 208 212 213 217 216 204 192 186 197 173 159 212 218 199 195 206 211 238 264 215 216 209 196 206 204 200 202 143 191 215 357 349 243 236 243 281 322 205 241 224 217 225 247
228 197 204 205 207 211 210 217 217 202 192 191 236 193 170 191 199 200 194 196 212 204 229 212 208 208 196 196 198 205 192 156 183 155 196 240 237 241 260 289 286 284 275 238 237 242 248
216 205 205 205 206 209 207 209 206 195 189 190 221 198 166 185 192 199 200 208 207 202 192 205 223 205 195 190 201 197 195 194 183 182 199 197 248 274 264 248 265 271 264 256 252 248 255
205 204 204 205 209 207 206 208 208 199 181 182 235 283 184 168 194 192 200 199 203 209 184 272 211 195 201 108 62 38 80 131 159 180 197 191 211 193 253 337 306 286 245 247 249 250 254
199 202 205 208 208 209 200 203 207 211 199 195 217 236 184 176 187 193 200 198 204 208 178 196 224 181 101 122 106 87 88 93 110 88 182 185 204 119 260 257 262 288 17 328 295 282 272
196 202 207 210 210 205 203 203 207 212 209 214 239 272 182 165 190 192 193 196 191 174 138 132 59 101 155 164 125 125 121 81 105 77 136 233 158 160 185 223 290 287 156 303 271 295 12
200 201 207 209 213 204 200 201 202 198 203 212 250 307 274 141 205 186 181 191 171 166 149 95 119 97 150 123 127 198 204 219 174 150 116 129 245 221 165 208 234 71 90 100 278 259 39
196 205 205 205 205 203 197 198 204 208 206 205 229 305 295 176 168 194 192 180 190 174 145 133 161 164 262 111 135 180 197 319 172 193 182 145 230 212 201 251 282 59 132 217 240 42 359
205 201 202 204 210 190 193 200 203 202 209 196 218 264 262 101 116 239 182 195 177 197 156 133 140 180 168 148 171 179 156 195 194 185 176 173 170 189 182 207 263 131 144 254 27 338 1
195 196 217 184 184 191 190 196 198 200 206 189 231 228 313 103 98 99 67 42 29 326 202 172 226 156 174 147 143 109 140 52 343 222 184 213 217 226 207 223 111 176 3 26 330 318 321